User: anonymous   Login
Location: Unspecified
(0.0000°N, 0.0000°E)
Time: 01:56:00
(UTC+00:00)
Language:

FORMOSAT 3B - Orbit

View from above orbital plane
View from above orbital plane
View from above satellite
View from above satellite

Ground track
Ground track

The orbit data is extracted from the following two-line orbital elements,

1 29048U 06011B   17147.46908418 +.00000058 +00000-0 +39347-4 0  9994
2 29048 071.9656 141.6353 0043096 145.7186 012.6282 14.28516411584298
Epoch (UTC): 27 May 2017 11:15:28
Eccentricity: 0.0043096
inclination: 71.9656°
perigee height: 766 km
apogee height: 827 km
right ascension of ascending node: 141.6353°
argument of perigee: 145.7186°
revolutions per day: 14.28516411
mean anomaly at epoch: 12.6282°
orbit number at epoch: 58429

The dashed part of the orbit path shows where the satellite is in the earth's shadow,  

DLR